[[{"header":{"parameterUnit":"m.s-1","parameterCategory":1,"la1":30.2991,"la2":30.254,"lo1":-89.0895,"lo2":-89.0444,"dy":0.0017,"dx":0.0017,"nx":28,"ny":28,"refTime":"2024-10-16T03:00:00:Z","depth":0,"parameterNumber":2,"parameterNumberName":"U-component_of_WINDS"},"data":[0,0,0,0,0,0,0,0,0,0,0,0,0,0,0,0,0,0,0,0,0,0,0,0,0,0,0,0,0,0,0,0,0,0,0,0,0,0,0,0,0,0,0,0,0,0,0,0,0,0,0,0,0,0,0,0,0,0,-3.5511,-3.5511,0,-3.5518,-3.5518,-3.5518,-3.5413,-3.541,-3.5407,-3.5404,-3.5413,-3.5416,-3.5419,0,0,0,0,0,0,0,0,0,0,0,0,0,-3.5405,-3.5407,-3.5511,-3.5511,-3.5511,-3.5518,-3.5518,-3.5518,-3.5413,-3.541,-3.5406,-3.5403,-3.5412,-3.5416,-3.5419,0,0,0,0,0,0,0,0,0,0,0,0,0,-3.5435,-3.5408,-3.5511,-3.5459,-3.5455,-3.5518,-3.5518,-3.5519,-3.5414,-3.541,-3.5405,-3.5401,-3.5411,-3.5415,-3.542,-3.5533,0,0,-3.5433,-3.5435,0,0,0,0,0,0,0,0,-3.5434,-3.5439,-3.5467,-3.5463,-3.5458,-3.546,-3.5484,-3.5523,-3.5415,-3.543,-3.5404,-3.5399,-3.5432,-3.5435,-3.5446,-3.5533,-3.5534,-3.5433,-3.5436,-3.5438,-3.5439,0,0,0,0,0,0,0,-3.5432,-3.5439,-3.5514,-3.5467,-3.5462,-3.5436,-3.5435,-3.5491,-3.5455,-3.5428,-3.542,-3.5423,-3.5429,-3.5442,-3.5445,-3.5534,-3.5433,-3.5437,-3.544,-3.5442,-3.5714,-3.5719,0,0,0,0,0,0,-3.5437,-3.5437,-3.5513,-3.5514,-3.5435,-3.5441,-3.5441,-3.5464,-3.5454,-3.5449,-3.5426,-3.5418,-3.5436,-3.544,-3.5445,-3.5577,-3.5438,-3.5442,-3.5445,-3.571,-3.5715,-3.572,0,0,0,0,0,0,-3.5435,-3.5444,-3.5513,-3.5474,-3.548,-3.5448,-3.5474,-3.5466,-3.5479,-3.5453,-3.5446,-3.5446,-3.5433,-3.5439,-3.5512,-3.5576,-3.5444,-3.5448,-3.5704,-3.5711,-3.5718,-3.5842,0,0,0,0,0,0,-3.5432,-3.5444,-3.5487,-3.5475,-3.5483,-3.558,-3.5478,-3.547,-3.5486,-3.5475,-3.5469,-3.5464,-3.543,-3.5506,-3.5516,-3.5579,-3.5451,-3.5698,-3.5707,-3.5715,-3.5832,-3.5852,-3.5869,0,0,0,0,0,-3.5429,-3.5522,-3.549,-3.55,-3.5536,-3.5584,-3.5588,-3.5547,-3.5492,-3.5535,-3.5518,-3.5464,-3.5567,-3.5514,-3.5525,-3.559,-3.5694,-3.5705,-3.5715,-3.5823,-3.5848,-3.5869,0,0,0,0,0,0,-3.5543,-3.552,-3.5484,-3.5576,-3.5583,-3.5566,-3.5619,-3.5574,-3.5597,-3.5586,-3.5533,-3.5533,-3.5614,-3.5609,-3.5551,-3.5699,-3.5621,-3.5634,-3.5699,-3.5723,-3.5741,-3.5741,-3.5455,0,0,0,0,0,-3.5579,-3.562,-3.5597,-3.5681,-3.5686,-3.5652,-3.5672,-3.5639,-3.5644,-3.5646,-3.5635,-3.5642,-3.5675,-3.5699,-3.5728,-3.583,-3.5827,-3.588,-3.5899,-3.5915,-3.5927,-3.598,-3.6003,-3.5754,-3.5754,-3.5754,0,0,-3.5654,-3.5646,-3.5675,-3.5704,-3.5705,-3.5749,-3.5655,-3.5706,-3.5737,-3.5654,-3.5722,-3.5714,-3.5718,-3.5806,-3.5844,-3.5804,-3.5995,-3.5928,-3.594,-3.5944,-3.5993,-3.6016,-3.6037,-3.5761,-3.576,-3.5759,0,0,-3.5812,-3.5811,-3.588,-3.5883,-3.5886,-3.5862,-3.5879,-3.5869,-3.586,-3.5927,-3.5866,-3.5903,-3.5962,-3.5967,-3.5977,-3.6137,-3.6089,-3.6148,-3.6246,-3.6299,-3.6318,-3.6335,-3.6392,-3.6413,-3.616,-3.616,-3.616,0,-3.5905,-3.5968,-3.5921,-3.5975,-3.599,-3.5915,-3.5985,-3.599,-3.6003,-3.6015,-3.5969,-3.6041,-3.6039,-3.6127,-3.6166,-3.6177,-3.6194,-3.6149,-3.6319,-3.6336,-3.6351,-3.6405,-3.6426,-3.6167,-3.6167,-3.6166,-3.6165,0,-3.6082,-3.6127,-3.6182,-3.6196,-3.6216,-3.6278,-3.624,-3.6266,-3.6232,-3.6213,-3.6282,-3.6277,-3.6303,-3.6322,-3.6289,-3.6405,-3.638,-3.6328,-3.6249,-3.6383,-3.6432,-3.6453,-3.6178,-3.6175,-3.6173,-3.6171,0,0,-3.6314,-3.63,-3.6321,-3.6326,-3.6323,-3.6357,-3.6415,-3.644,-3.6464,-3.6475,-3.6522,-3.6573,-3.6525,-3.6537,-3.6504,-3.655,-3.6676,-3.6492,-3.6491,-3.6526,-3.6804,-3.6843,-3.6868,-3.6644,-3.6647,-3.665,-3.6803,0,-3.6468,-3.6566,-3.6525,-3.6627,-3.6668,-3.6597,-3.6648,-3.6652,-3.6636,-3.6667,-3.6649,-3.6686,-3.662,-3.6627,-3.6669,-3.6652,-3.6731,-3.664,-3.6688,-3.669,-3.6689,-3.6894,-3.6935,-3.708,-3.6822,-3.6826,-3.6828,0,-3.6661,-3.6679,-3.6786,-3.6775,-3.679,-3.6837,-3.6856,-3.6888,-3.689,-3.6875,-3.6888,-3.6845,-3.69,-3.6821,-3.6897,-3.6836,-3.6853,-3.6848,-3.6852,-3.6855,-3.6768,-3.6903,-3.7125,-3.7147,-3.6858,-3.6856,-3.6853,0,-3.682,-3.6871,-3.6941,-3.6947,-3.6936,-3.697,-3.6968,-3.6966,-3.6984,-3.7001,-3.7012,-3.7036,-3.7049,-3.7069,-3.7032,-3.6978,-3.7114,-3.7031,-3.7103,-3.7104,-3.7135,-3.7134,-3.7365,-3.7146,-3.7146,-3.7145,-3.7145,0,-3.6997,-3.7064,-3.7012,-3.7055,-3.7129,-3.708,-3.7155,-3.7144,-3.7143,-3.7182,-3.7123,-3.7162,-3.7111,-3.7145,-3.7117,-3.7184,-3.7191,-3.718,-3.7172,-3.7186,-3.7187,-3.7196,-3.7185,-3.7151,-3.715,-3.7149,-3.7148,0,-3.7187,-3.7154,-3.7226,-3.7209,-3.7206,-3.7261,-3.7247,-3.7286,-3.7265,-3.7317,-3.7326,-3.7294,-3.733,-3.7295,-3.733,-3.7311,-3.7401,-3.7379,-3.7401,-3.7394,-3.7468,-3.7462,-3.7713,-3.7743,-3.7505,-3.7508,-3.751,0,-3.7302,-3.7352,-3.7341,-3.7363,-3.7363,-3.74,-3.7417,-3.7372,-3.7392,-3.7398,-3.7437,-3.7468,-3.7491,-3.7552,-3.7532,-3.7558,-3.7536,-3.7622,-3.7539,-3.7551,-3.7537,-3.7535,-3.7539,-3.7639,-3.7642,-3.7644,-3.7646,0,-3.751,-3.7491,-3.7518,-3.754,-3.7563,-3.7578,-3.7588,-3.761,-3.7563,-3.7589,-3.7625,-3.7643,-3.7678,-3.7709,-3.7729,-3.7726,-3.7679,-3.7672,-3.769,-3.7705,-3.7716,-3.7711,-3.7447,-3.7667,-3.7664,-3.7663,-3.7662,-3.7661,-3.7666,-3.7707,-3.7705,-3.7737,-3.774,-3.7751,-3.7787,-3.777,-3.78,-3.7824,-3.7795,-3.784,-3.784,-3.7861,-3.7864,-3.7898,-3.7862,-3.7888,-3.7895,-3.7902,-3.7913,-3.771,-3.7901,-3.7901,-3.79,-3.79,-3.7899,0,-3.787,-3.7865,-3.7896,-3.7912,-3.7937,-3.7889,-3.7898,-3.7923,-3.7963,-3.7967,-3.799,-3.8031,-3.8062,-3.8044,-3.8069,-3.81,-3.8079,-3.8109,-3.8106,-3.8106,-3.7944,-3.7925,-3.8125,-3.8125,-3.8125,-3.8125,-3.8125,-3.8125,-3.798,-3.8047,-3.8028,-3.8096,-3.809,-3.8132,-3.8142,-3.8151,-3.8154,-3.8203,-3.8228,-3.8215,-3.8211,-3.8235,-3.8261,-3.8255,-3.8267,-3.8305,-3.8291,-3.814,-3.8118,-3.8096,-3.8079,-3.8308,-3.8308,-3.8451,-3.8452,-3.8453]},{"header":{"parameterUnit":"m.s-1","parameterCategory":1,"la1":30.2991,"la2":30.254,"lo1":-89.0895,"lo2":-89.0444,"dy":0.0017,"dx":0.0017,"nx":28,"ny":28,"refTime":"2024-10-16T03:00:00:Z","depth":0,"parameterNumber":3,"parameterNumberName":"V-component_of_WINDS"},"data":[0,0,0,0,0,0,0,0,0,0,0,0,0,0,0,0,0,0,0,0,0,0,0,0,0,0,0,0,0,0,0,0,0,0,0,0,0,0,0,0,0,0,0,0,0,0,0,0,0,0,0,0,0,0,0,0,0,0,-5.4222,-5.4223,0,-5.4274,-5.4274,-5.4275,-5.4199,-5.4197,-5.4194,-5.4192,-5.424,-5.4244,-5.4247,0,0,0,0,0,0,0,0,0,0,0,0,0,-5.4054,-5.4057,-5.4222,-5.4223,-5.4223,-5.4273,-5.4274,-5.4275,-5.42,-5.4197,-5.4194,-5.4191,-5.4239,-5.4243,-5.4248,0,0,0,0,0,0,0,0,0,0,0,0,0,-5.4118,-5.4059,-5.4222,-5.4192,-5.419,-5.4273,-5.4274,-5.4275,-5.4201,-5.4197,-5.4193,-5.4189,-5.4237,-5.4243,-5.4248,-5.4362,0,0,-5.4266,-5.4268,0,0,0,0,0,0,0,0,-5.4115,-5.4125,-5.4196,-5.4194,-5.4192,-5.4226,-5.4233,-5.4304,-5.4202,-5.4196,-5.4192,-5.4187,-5.4238,-5.4244,-5.4262,-5.4364,-5.4366,-5.4266,-5.4269,-5.4272,-5.4273,0,0,0,0,0,0,0,-5.411,-5.4122,-5.4242,-5.4197,-5.4195,-5.4175,-5.4179,-5.4246,-5.4239,-5.4197,-5.4191,-5.4199,-5.4237,-5.4257,-5.4262,-5.4367,-5.4266,-5.4271,-5.4274,-5.4277,-5.4564,-5.4568,0,0,0,0,0,0,-5.411,-5.4119,-5.4241,-5.4244,-5.4143,-5.4181,-5.4186,-5.4219,-5.4238,-5.4237,-5.4202,-5.4195,-5.4249,-5.4256,-5.4264,-5.4397,-5.4272,-5.4277,-5.428,-5.456,-5.4565,-5.457,0,0,0,0,0,0,-5.4107,-5.4122,-5.4238,-5.418,-5.4193,-5.4188,-5.4226,-5.4222,-5.4242,-5.4242,-5.424,-5.4224,-5.4246,-5.4256,-5.4338,-5.4398,-5.428,-5.4285,-5.4555,-5.4562,-5.4568,-5.4666,0,0,0,0,0,0,-5.4102,-5.4121,-5.4165,-5.4182,-5.4197,-5.4314,-5.4229,-5.4226,-5.4253,-5.4244,-5.4262,-5.4261,-5.4244,-5.433,-5.4344,-5.4404,-5.4289,-5.455,-5.4558,-5.4565,-5.4657,-5.4675,-5.469,0,0,0,0,0,-5.4097,-5.419,-5.4168,-5.4183,-5.4252,-5.4317,-5.4326,-5.4305,-5.4258,-5.4301,-5.4301,-5.4261,-5.439,-5.4339,-5.4354,-5.4416,-5.4546,-5.4556,-5.4565,-5.465,-5.4671,-5.469,0,0,0,0,0,0,-5.4179,-5.4192,-5.4167,-5.4269,-5.4293,-5.4305,-5.4359,-5.4329,-5.4365,-5.4355,-5.4326,-5.4331,-5.4419,-5.4426,-5.437,-5.4527,-5.4459,-5.4473,-5.4519,-5.454,-5.4556,-5.4552,-5.4294,0,0,0,0,0,-5.421,-5.4263,-5.4271,-5.436,-5.4373,-5.4364,-5.4392,-5.4374,-5.4397,-5.4406,-5.4412,-5.4434,-5.448,-5.451,-5.4552,-5.4658,-5.466,-5.4708,-5.4724,-5.4738,-5.4749,-5.4805,-5.4826,-5.4601,-5.4601,-5.4601,0,0,-5.4272,-5.4286,-5.4321,-5.4377,-5.4393,-5.4448,-5.4373,-5.4434,-5.4474,-5.4415,-5.4493,-5.4498,-5.4521,-5.4616,-5.4658,-5.4624,-5.4812,-5.475,-5.4761,-5.4765,-5.4817,-5.4838,-5.4857,-5.4608,-5.4607,-5.4606,0,0,-5.4414,-5.4431,-5.4506,-5.4525,-5.4551,-5.4545,-5.4563,-5.458,-5.4581,-5.466,-5.4616,-5.4662,-5.4742,-5.476,-5.4779,-5.4929,-5.4892,-5.4943,-5.5028,-5.5083,-5.51,-5.5116,-5.5168,-5.5187,-5.4954,-5.4955,-5.4955,0,-5.4488,-5.4571,-5.4549,-5.4613,-5.4638,-5.4589,-5.4664,-5.4683,-5.4721,-5.4739,-5.4701,-5.4799,-5.4811,-5.4909,-5.4946,-5.4963,-5.4982,-5.494,-5.51,-5.5115,-5.5129,-5.5179,-5.5199,-5.4961,-5.496,-5.4959,-5.4959,0,-5.466,-5.4717,-5.4775,-5.4815,-5.4847,-5.4916,-5.4903,-5.4938,-5.4917,-5.4914,-5.4994,-5.5007,-5.5051,-5.5073,-5.5053,-5.5168,-5.5146,-5.5105,-5.5036,-5.5157,-5.5203,-5.5222,-5.4969,-5.4967,-5.4965,-5.4964,0,0,-5.4854,-5.4882,-5.4903,-5.4921,-5.4946,-5.499,-5.5056,-5.51,-5.513,-5.5158,-5.5212,-5.5281,-5.5243,-5.5265,-5.5246,-5.5295,-5.5411,-5.5247,-5.5247,-5.5276,-5.5537,-5.5568,-5.559,-5.5388,-5.5391,-5.5394,-5.5535,0,-5.4995,-5.5113,-5.5095,-5.5207,-5.5259,-5.5214,-5.5272,-5.5293,-5.5292,-5.5335,-5.5333,-5.5382,-5.5329,-5.5342,-5.5388,-5.5387,-5.5463,-5.5377,-5.5436,-5.5439,-5.5431,-5.5614,-5.5646,-5.5779,-5.5553,-5.5556,-5.5558,0,-5.5175,-5.5212,-5.533,-5.5347,-5.5368,-5.5421,-5.546,-5.5502,-5.5525,-5.552,-5.5546,-5.5519,-5.5584,-5.5516,-5.5604,-5.5546,-5.5569,-5.5573,-5.5578,-5.5581,-5.5505,-5.5622,-5.5821,-5.584,-5.5586,-5.5584,-5.5582,0,-5.5304,-5.5383,-5.5463,-5.548,-5.5502,-5.554,-5.5551,-5.557,-5.5597,-5.5631,-5.5648,-5.5688,-5.571,-5.5741,-5.5724,-5.5676,-5.5816,-5.5746,-5.5813,-5.5813,-5.5843,-5.5841,-5.6047,-5.586,-5.586,-5.586,-5.5859,0,-5.5463,-5.5537,-5.5521,-5.5571,-5.5652,-5.563,-5.571,-5.5716,-5.5733,-5.5781,-5.5744,-5.579,-5.5766,-5.581,-5.5798,-5.5872,-5.5883,-5.588,-5.5876,-5.5883,-5.5883,-5.5897,-5.5887,-5.5865,-5.5864,-5.5863,-5.5862,0,-5.562,-5.5613,-5.5698,-5.5713,-5.5718,-5.5777,-5.5789,-5.5835,-5.5831,-5.5893,-5.5906,-5.5901,-5.5951,-5.5938,-5.5992,-5.5983,-5.6077,-5.6062,-5.607,-5.6066,-5.6133,-5.6126,-5.6354,-5.6382,-5.6178,-5.618,-5.6182,0,-5.5721,-5.5777,-5.5799,-5.5829,-5.5844,-5.5893,-5.5922,-5.5902,-5.5933,-5.5963,-5.6005,-5.6052,-5.6088,-5.6169,-5.6169,-5.621,-5.6194,-5.6271,-5.62,-5.6205,-5.6194,-5.619,-5.6195,-5.6285,-5.6287,-5.6289,-5.6291,0,-5.5901,-5.5895,-5.5938,-5.5981,-5.6016,-5.6047,-5.6075,-5.6102,-5.6085,-5.6121,-5.6172,-5.6201,-5.6256,-5.6302,-5.634,-5.6349,-5.6317,-5.6313,-5.6331,-5.6338,-5.634,-5.6339,-5.6107,-5.6308,-5.6306,-5.6305,-5.6304,-5.6303,-5.6032,-5.608,-5.6103,-5.6152,-5.6171,-5.6199,-5.6242,-5.6245,-5.6288,-5.6333,-5.6318,-5.6376,-5.6397,-5.6444,-5.6458,-5.6502,-5.6473,-5.6498,-5.6504,-5.6511,-5.6519,-5.6335,-5.6509,-5.6509,-5.6508,-5.6508,-5.6507,0,-5.621,-5.6222,-5.6268,-5.6309,-5.6347,-5.6316,-5.6345,-5.6379,-5.6431,-5.6454,-5.6491,-5.6549,-5.6594,-5.6598,-5.664,-5.6674,-5.666,-5.6686,-5.6682,-5.6685,-5.6543,-5.6524,-5.6696,-5.6696,-5.6696,-5.6696,-5.6696,-5.6696,-5.6306,-5.6385,-5.6381,-5.6469,-5.648,-5.6538,-5.6558,-5.6582,-5.66,-5.6668,-5.6705,-5.6708,-5.6723,-5.6765,-5.6805,-5.6804,-5.6821,-5.6852,-5.6846,-5.6714,-5.6695,-5.6677,-5.6658,-5.6856,-5.6856,-5.6983,-5.6985,-5.6986]}]]